Weather in Bannoe

Russia / Udmurt Republic     56°57′17″N   53°33′41″E
temp.,
°C
wind,
m/s
gust,
m/s
humid.,
%
clouds,
%
prec.,
mm/h
press.,
hPa
HPBL,
m
5 march, fri
fri501:00−4w7149267 0.1 989749
04:00−7w6138983 0.2 993653
07:00−11w5119499 0.0 997381
10:00−11wnw489197 0.1 1000373
13:00−7wnw478148 0.0 1001615
16:00−6wnw368124 0.0 1002772
19:00−11wsw339129 0.0 100434
22:00−12wsw399519 0.0 1006205
6 march, sat
sat601:00−13wsw379867 0.0 1006146
04:00−13w359763 0.1 100896
07:00−16wnw369796 0.0 1009143
10:00−14wnw368863 0.0 1011344
13:00−10wnw368123 0.0 1012775
16:00−10w358561 0.1 1012880
19:00−14w2294100 0.1 101220
22:00−16w239797 0.1 101341
7 march, sun
sun701:00−19wsw229913 0.0 101220
04:00−20sw1110035 0.0 101220
07:00−19ssw119993 0.1 101120
10:00−14ssw119294 0.1 1010236
13:00−11sw1283100 0.0 1009606
16:00−10ssw2285100 0.1 1008550
19:00−14s2397100 0.1 100860
22:00−17s339795 0.1 100848
8 march, mon
mon801:00−19sse369997 0.0 100693
04:00−16se4109698 0.1 1003274
07:00−14sse51095100 0.8 1000435
10:00−11sse51093100 1.4 999543
13:00−7sse5991100 0.4 999663
16:00−6sw598996 0.6 999965
19:00−8ssw41093100 0.2 1000582
22:00−10s3109599 0.4 1000290
9 march, tue
tue901:00−11ese3696100 0.1 997172
04:00−11nne4795100 1.3 994224
07:00−10nnw4995100 1.6 994403
10:00−8nw5892100 2.4 998418
13:00−6wnw4685100 0.1 1003755
16:00−6wnw4683100 0.2 1006922
19:00−10w2295100 0.1 100821
22:00−12nnw129699 0.3 101021